Weather observations for the past three days for
El Paso, El Paso International Airport
Imperial (Metric)
Date Time (mdt) Wind (mph) Vis. (mi.) Weather Sky Cond. Temperature (ºF) Relative Humidity Wind Chill (°F) Heat Index (°F) Pressure Precipitation (in)
Air Dwpt 6 hour altimeter (in) sea level (mb) 1 hr 3 hr 6 hr
Max. Min.
15 20:51 W 3 10.00 Fair CLR 95 9 4% 90 29.83 1001.2
15 19:51 W 7 10.00 Fair CLR 99 7 3% 93 29.82 1000.9
15 18:51 NW 10 G 22 10.00 Fair CLR 100.9 10 3% 95 29.82 1001.0
15 17:51 W 14 G 24 10.00 Fair CLR 102.9 15.1 104 93.9 4% 96 29.82 1000.9
15 16:51 W 9 G 24 10.00 Fair CLR 100.9 16 4% 95 29.84 1001.5
15 15:51 W 15 G 30 10.00 A Few Clouds FEW140 102.9 17.1 4% 96 29.86 1002.1
15 14:51 W 9 G 23 10.00 A Few Clouds FEW140 100.9 27 7% 95 29.88 1002.6
15 13:51 W 9 G 16 10.00 A Few Clouds FEW120 100.9 32 9% 95 29.9 1003.5
15 12:51 W 10 G 17 10.00 A Few Clouds FEW110 99 33.1 10% 94 29.93 1004.4
15 11:51 S 5 10.00 A Few Clouds FEW095 93.9 48 96.1 79 21% 90 29.95 1005.0
15 10:51 Vrbl 5 10.00 Fair CLR 91.9 54 28% 90 29.96 1005.4
15 09:51 Calm 10.00 Fair CLR 88 54 31% 86 29.96 1005.7
15 08:51 Calm 10.00 Fair CLR 84.9 54 35% 83 29.98 1006.3
15 07:51 E 3 10.00 A Few Clouds FEW250 82.9 54 37% 82 29.97 1006.0
15 06:51 N 7 10.00 A Few Clouds FEW250 79 51.1 38% 79 29.96 1005.6
15 05:51 N 6 10.00 Fair CLR 79 52 93 79 39% 79 29.94 1005.1
15 04:51 N 7 10.00 Fair CLR 80.1 51.1 37% 80 29.93 1004.5
15 03:51 Calm 10.00 Fair CLR 81 52 37% 80 29.92 1004.0
15 02:51 Vrbl 3 10.00 A Few Clouds FEW160 84.9 51.1 31% 83 29.9 1003.6
15 01:51 E 8 10.00 A Few Clouds FEW160 86 50 29% 84 29.9 1003.6
15 00:51 SE 10 10.00 A Few Clouds FEW160 89.1 48.9 25% 86 29.91 1004.0
14 23:51 S 7 10.00 A Few Clouds FEW160 93 45 105.1 91.9 19% 89 29.94 1004.4
14 22:51 E 15 G 24 10.00 Mostly Cloudy BKN160 93.9 39 15% 90 29.9 1003.2
14 21:51 E 7 10.00 Mostly Cloudy FEW140 BKN170 93.9 37.9 14% 89 29.88 1002.9
14 20:51 NE 5 10.00 Partly Cloudy FEW140 SCT170 97 39 13% 92 29.87 1002.4
14 19:51 N 9 10.00 Partly Cloudy FEW140 SCT180 100 39.9 13% 95 29.86 1002.1
14 18:51 NW 13 G 17 10.00 Partly Cloudy FEW140 SCT180 SCT220 104 36 9% 98 29.85 1001.7
14 17:51 W 15 G 24 10.00 Partly Cloudy FEW140 SCT180 SCT220 104 33.1 107.1 99 8% 98 29.85 1001.7
14 16:51 W 14 G 21 10.00 Partly Cloudy FEW140 SCT180 SCT220 106 35.1 9% 100 29.86 1002.1
14 15:51 SW 3 10.00 Mostly Cloudy FEW140 BKN180 BKN250 105.1 37.9 10% 100 29.88 1002.8
14 14:51 W 10 10.00 Mostly Cloudy FEW130 SCT180 BKN250 102.9 39.9 11% 98 29.91 1003.6
14 13:51 SW 6 10.00 Mostly Cloudy FEW130 SCT180 BKN250 102 45 14% 98 29.93 1004.5
14 12:51 SE 5 10.00 Mostly Cloudy FEW130 SCT180 BKN250 99 45 16% 95 29.96 1005.4
14 11:51 Vrbl 7 G 18 10.00 Mostly Cloudy FEW130 SCT180 BKN250 100 45 102 81 15% 96 29.98 1006.1
14 10:51 S 15 G 23 10.00 Mostly Cloudy FEW130 SCT180 BKN250 97 45 17% 93 29.99 1006.2
14 09:51 SE 13 G 20 10.00 Partly Cloudy FEW130 SCT180 93.9 46.9 20% 90 29.99 1006.5
14 08:51 S 10 10.00 Partly Cloudy FEW130 FEW180 SCT250 90 46.9 23% 87 30.01 1007.0
14 07:51 S 7 10.00 Partly Cloudy FEW140 SCT180 SCT220 88 46.9 24% 85 30 1006.8
14 06:51 SW 5 10.00 A Few Clouds FEW180 FEW210 82 46.9 29% 80 29.99 1006.6
14 05:51 E 3 10.00 A Few Clouds FEW180 82.9 46.9 93 82.9 28% 81 29.97 1005.9
14 04:51 SE 6 10.00 A Few Clouds FEW160 84 46 27% 82 29.96 1005.2
14 03:51 E 3 10.00 A Few Clouds FEW160 84.9 44.1 24% 82 29.96 1005.2
14 02:51 E 9 10.00 A Few Clouds FEW160 86 42.1 21% 83 29.97 1005.7
14 01:51 SW 8 10.00 A Few Clouds FEW140 88 42.1 20% 84 29.97 1005.7
14 00:51 SE 9 10.00 Fair CLR 91 43 19% 87 29.95 1004.8
13 23:51 SE 9 10.00 Fair CLR 93 39 107.1 91.9 15% 89 29.95 1005.0
13 22:51 E 8 10.00 Fair CLR 96.1 37.9 13% 91 29.95 1005.0
13 21:51 SE 9 10.00 Fair CLR 96.1 39 14% 92 29.94 1004.9
13 20:51 E 13 10.00 A Few Clouds FEW150 FEW200 99 39 13% 94 29.93 1004.5
13 19:51 E 18 G 29 10.00 A Few Clouds FEW150 FEW200 100.9 37.9 11% 96 29.93 1004.4
13 18:51 E 13 10.00 Partly Cloudy FEW150 SCT200 106 33.1 8% 100 29.92 1004.0
13 17:51 E 16 10.00 Blowing Dust in Vicinity FEW150 SCT200 106 33.1 109 99 8% 100 29.92 1004.0
13 16:51 Vrbl 5 10.00 Blowing Dust in Vicinity FEW150 SCT220 109 28.9 6% 102 29.94 1004.6
13 15:51 Vrbl 6 10.00 Blowing Dust in Vicinity FEW140 SCT220 108 35.1 8% 102 29.95 1005.0
13 14:51 Vrbl 3 10.00 A Few Clouds FEW120 107.1 39.9 10% 102 29.97 1005.8
13 13:51 Vrbl 3 10.00 A Few Clouds FEW110 FEW140 104 42.1 12% 99 29.99 1006.5
13 12:51 N 7 10.00 A Few Clouds FEW100 FEW130 102.9 42.1 12% 98 30.02 1007.2
13 11:51 Calm 10.00 A Few Clouds FEW100 100 43 100 75.9 14% 96 30.03 1007.9
13 10:51 Vrbl 3 10.00 A Few Clouds FEW100 FEW160 95 48 20% 91 30.04 1008.3
13 09:51 Calm 10.00 A Few Clouds FEW160 93.9 48 21% 90 30.05 1008.6
13 08:51 Calm 10.00 A Few Clouds FEW150 88 46.9 24% 85 30.05 1008.5
13 07:51 N 5 10.00 A Few Clouds FEW140 84.9 45 25% 82 30.03 1008.1
13 05:51 S 3 10.00 A Few Clouds FEW140 FEW250 80.1 45 90 79 29% 79 30.01 1007.2
13 04:51 SW 5 10.00 A Few Clouds FEW250 80.1 45 29% 79 29.98 1006.4
13 03:51 Calm 10.00 Fair CLR 82 44.1 26% 80 29.98 1006.1
13 02:51 NE 5 10.00 A Few Clouds FEW250 82 43 25% 80 29.97 1005.9
13 01:51 SW 3 10.00 Fair CLR 87.1 41 20% 84 29.97 1005.9
13 00:51 S 7 10.00 Fair CLR 89.1 43 20% 85 29.97 1006.0
12 23:51 E 9 10.00 Fair CLR 90 39 106 87.1 17% 86 29.98 1006.1
12 22:51 S 6 10.00 Fair CLR 91 35.1 14% 87 29.98 1006.3
12 21:51 S 7 10.00 Fair CLR 93.9 34 12% 89 29.97 1006.0
Date Time (mdt) Wind (mph) Vis. (mi.) Weather Sky Cond. Air Dwpt Max. Min. Relative Humidity Wind Chill (°F) Heat Index (°F) altimeter (in) sea level (mb) 1 hr 3 hr 6 hr
6 hour
Temperature (ºF) Pressure Precipitation (in)